Change the Weather History Date:

Wednesday, May 2, 2012

  Actual Average Record
Temperature  
Mean Temperature 55 °F 51 °F  
Max Temperature 70 °F 64 °F 94 °F (1955)
Min Temperature 40 °F 37 °F 17 °F (1967)
Degree Days  
Heating Degree Days 10 14  
Month to date heating degree days 16 29  
Since 1 July heating degree days 6713 8184  
Cooling Degree Days 0 0  
Month to date cooling degree days 0 0  
Year to date cooling degree days 0 1  
Growing Degree Days 4 (Base 50)    
Moisture  
Dew Point 40 °F    
Average Humidity 59    
Maximum Humidity 89    
Minimum Humidity 29    
Precipitation  
Precipitation 0.27 in 0.07 in 0.85 in (1957)
Month to date precipitation 0.27 0.13  
Year to date precipitation 3.29 3.20  
Snow  
Snow 0.00 in 0.10 in 2.60 in (1887)
Month to date snowfall 0.0 0.1  
Since 1 July snowfall 13.6 50.9  
Snow Depth 0.00 in    
Sea Level Pressure  
Sea Level Pressure 29.73 in    
Wind  
Wind Speed 6 mph (North)    
Max Wind Speed 26 mph    
Max Gust Speed 32 mph    
Visibility 9 miles    
Events Rain , Thunderstorm    
T = Trace of Precipitation, MM = Missing Value Source: NWS Daily Summary

Daily Weather History Graph

Daily Weather History Graph

Search for Another Location

Airport or City:

Trip Planner

Search our weather history database for the weather conditions in past years. The results will help you decide how hot, cold, wet, or windy it might be!

Date:

Astronomy

May. 02, 2012 Rise Set
Actual Time 6:25 AM CDT 8:55 PM CDT
Civil Twilight 5:51 AM CDT 9:29 PM CDT
Nautical Twilight 5:09 AM CDT 10:12 PM CDT
Astronomical Twilight 4:20 AM CDT 11:01 PM CDT
Moon 4:57 PM CDT (5/2) 4:11 AM CDT (5/2)
Length of Visible Light 15h 37m
Length of Day
14h 29m
Waxing Gibbous, 83% of the Moon is Illuminated
May 2
Waxing Gibbous
May 5
Full
May 12
Last Quarter
May 20
New
May 28
First Quarter

Hourly Weather History & Observations

Time (CDT) Temp. Windchill Dew Point Humidity Pressure Visibility Wind Dir Wind Speed Gust Speed Precip Events Conditions
12:52 AM 42.1 °F - 39.9 °F 92% 29.63 in 10.0 mi Calm Calm - N/A   Clear
1:52 AM 46.9 °F - 43.0 °F 86% 29.64 in 10.0 mi Calm Calm - N/A   Clear
2:52 AM 46.0 °F 44.8 °F 42.1 °F 86% 29.64 in 10.0 mi West 3.5 mph - N/A   Clear
3:52 AM 46.0 °F 43.9 °F 42.1 °F 86% 29.65 in 10.0 mi WSW 4.6 mph - N/A   Clear
4:52 AM 45.0 °F 42.6 °F 39.0 °F 80% 29.68 in 10.0 mi West 4.6 mph - N/A   Clear
5:52 AM 44.1 °F 42.5 °F 37.9 °F 79% 29.70 in 10.0 mi West 3.5 mph - N/A   Clear
6:52 AM 42.1 °F 39.2 °F 36.0 °F 79% 29.72 in 10.0 mi West 4.6 mph - N/A   Clear
7:52 AM 46.0 °F 43.9 °F 39.0 °F 76% 29.73 in 10.0 mi West 4.6 mph - N/A   Clear
8:52 AM 51.1 °F - 37.9 °F 61% 29.76 in 10.0 mi West 4.6 mph - N/A   Clear
9:52 AM 57.0 °F - 39.0 °F 51% 29.76 in 10.0 mi WSW 4.6 mph - N/A   Clear
10:52 AM 60.1 °F - 35.1 °F 39% 29.75 in 10.0 mi Calm Calm - N/A   Clear
11:52 AM 63.0 °F - 34.0 °F 34% 29.75 in 10.0 mi ENE 6.9 mph - N/A   Clear
12:52 PM 64.0 °F - 32.0 °F 30% 29.76 in 10.0 mi Calm Calm - N/A   Overcast
1:52 PM 66.9 °F - 33.1 °F 28% 29.74 in 10.0 mi Calm Calm - N/A   Mostly Cloudy
2:52 PM 66.9 °F - 37.0 °F 33% 29.74 in 10.0 mi SE 6.9 mph - N/A   Mostly Cloudy
3:52 PM 68.0 °F - 35.1 °F 30% 29.73 in 10.0 mi Variable 3.5 mph - N/A   Partly Cloudy
4:52 PM 69.1 °F - 37.9 °F 32% 29.71 in 10.0 mi NE 8.1 mph - N/A   Clear
5:52 PM 66.9 °F - 39.0 °F 36% 29.69 in 10.0 mi ENE 9.2 mph - N/A   Partly Cloudy
6:52 PM 64.9 °F - 37.0 °F 36% 29.66 in 10.0 mi NE 17.3 mph 26.5 mph N/A   Mostly Cloudy
6:59 PM 64.4 °F - 37.4 °F 37% 29.66 in 10.0 mi NNE 18.4 mph 26.5 mph N/A Thunderstorm Thunderstorm
7:17 PM 60.8 °F - 42.8 °F 52% 29.74 in 7.0 mi NW 15.0 mph - 0.01 in Rain , Thunderstorm Light Thunderstorms and Rain
7:26 PM 57.2 °F - 44.6 °F 63% 29.76 in 2.5 mi NNW 13.8 mph 21.9 mph 0.11 in Rain , Thunderstorm Heavy Thunderstorms and Rain
7:35 PM 57.2 °F - 44.6 °F 63% 29.78 in 6.0 mi NW 11.5 mph 23.0 mph 0.14 in Rain , Thunderstorm Light Rain
7:52 PM 54.0 °F - 48.0 °F 80% 29.83 in 4.0 mi NW 17.3 mph 25.3 mph 0.16 in Rain , Thunderstorm Heavy Rain
8:20 PM 51.8 °F - 46.4 °F 82% 29.74 in 4.0 mi NNE 17.3 mph 32.2 mph 0.09 in Rain Heavy Rain
8:25 PM 51.8 °F - 46.4 °F 82% 29.74 in 5.0 mi NNE 12.7 mph 26.5 mph N/A Rain Light Rain
8:41 PM 51.8 °F - 46.4 °F 82% 29.77 in 10.0 mi NE 12.7 mph 25.3 mph 0.11 in   Scattered Clouds
8:52 PM 52.0 °F - 46.0 °F 80% 29.77 in 10.0 mi NE 15.0 mph - 0.11 in   Scattered Clouds
9:52 PM 51.1 °F - 45.0 °F 80% 29.80 in 10.0 mi NE 10.4 mph - 0.00 in   Mostly Cloudy
10:52 PM 52.0 °F - 45.0 °F 77% 29.80 in 10.0 mi ENE 13.8 mph - 0.00 in Rain Light Rain
11:52 PM 48.9 °F - 44.1 °F 83% 29.81 in 10.0 mi NE 4.6 mph - 0.00 in   Partly Cloudy